Vertical_Velocity
-1 -5 6 1 1 1 1 2 1 2 2 1 1 2 2 1 -1 2 1 1 -1 -1 -2 1 -2 -0 -0 -2 3 -3 -1 -3 -1 -3 1 2 -1 2 -4 -2 -1 2 0 3 -1 4 3
1 3 2 -5 5 -1 1 1 2 0 0 3 1 1 2 2 -2 2 1 -1 -1 -1 -2 -2 2 0 -4 -0 -1 -5 -8 2 -1 1 0 2 3 6 -1 -4 -1 2 -3 3 3 2 2
0 0 0 3 -4 13 -2 1 0 2 3 1 1 2 1 -1 1 1 1 -2 -1 0 -1 -2 1 0 -3 17 -0 0 -4 -2 -3 -4 0 2 2 1 1 0 8 1 -3 -2 0 -3 -4
-2 0 2 0 2 -2 10 -1 0 0 2 2 1 1 2 1 1 1 1 0 -0 0 1 0 -0 -0 -3 2 -1 -1 -2 -2 3 1 -0 0 2 2 3 2 2 3 2 2 -7 -1 -4
-3 -3 -0 1 -1 1 -2 5 0 1 2 1 1 2 -0 1 2 2 1 1 -0 2 0 1 1 -3 1 5 -1 2 -4 -0 1 -1 -2 9 2 1 3 5 4 -1 -1 4 -8 3 -2
-3 -0 -0 -3 0 1 1 -1 5 1 2 3 2 2 1 1 2 1 2 1 0 1 1 2 2 -2 -4 3 0 1 -1 1 -3 -4 0 -1 10 -1 1 -3 -15 -8 -6 -5 3 -2 7
-6 -4 -4 -1 -1 -0 2 2 -1 7 2 4 4 3 1 2 1 1 1 0 2 -1 0 4 -1 1 -3 -2 0 1 -2 2 -0 -2 -7 5 3 -14 -6 0 4 3 3 8 6 -0 6
-5 -6 -4 -3 -2 0 2 -6 -4 5 8 2 5 3 3 4 2 1 -2 -1 4 -0 -4 -0 1 -3 -1 1 -3 3 -2 -3 1 -9 8 6 -7 -8 4 4 4 4 1 3 -10 -4 10
-3 -2 -6 -5 -3 -2 -1 0 8 19 6 3 0 4 5 5 2 -4 3 0 -0 -0 -1 -2 1 1 6 3 -3 -5 2 5 -4 2 2 -6 -9 2 2 2 4 -4 -1 -1 4 -5 -1
-5 -2 -2 -5 -2 -2 -1 3 -1 4 30 12 6 6 0 15 -1 4 -1 3 1 0 -1 -5 -2 -4 -5 5 -7 2 -2 3 -3 -10 14 6 -8 -2 1 1 6 3 -4 2 6 5 -2
-4 -4 -5 -0 1 -2 3 2 -0 10 26 21 10 6 7 -1 3 -1 16 5 1 -3 -2 -5 -1 -2 0 1 -1 -1 1 5 -5 -5 -1 -19 -3 -3 5 -25 9 -9 2 -0 2 3 8
-3 -2 -3 1 0 6 2 -3 3 -7 4 -1 38 16 3 1 -4 7 1 3 4 -3 -15 -2 -1 -0 -1 2 -1 -3 -4 2 -4 8 1 10 1 -4 -2 3 5 4 4 6 9 8 11
-5 -4 -1 -1 2 8 2 1 -0 1 -5 15 57 3 5 19 4 2 2 0 0 -1 -1 -2 -2 -3 1 1 -3 -1 -1 -4 2 11 3 8 -7 -1 -1 -1 7 4 9 0 9 10 -6
-3 -2 -6 -7 0 -3 -2 2 6 1 -12 3 -3 56 -1 4 -0 0 -1 5 2 2 2 1 -5 0 0 2 -5 2 1 -5 -4 8 5 -0 1 -4 -4 -23 -0 -10 2 -5 -4 -1 -5
-1 -1 -1 -2 -5 5 7 -3 11 -10 -12 -22 40 31 -1 3 3 -0 -1 -2 -5 0 3 -2 0 2 -0 -2 2 -1 -1 -2 -3 -4 -2 -3 -11 0 -8 15 10 -14 1 -23 8 -4 8
-5 4 0 -3 -7 -1 15 -4 8 13 8 -17 8 32 -5 1 4 0 10 -9 -2 2 2 0 -1 -2 -2 -0 -3 -0 -6 -1 -4 -8 -6 -2 -0 -1 4 8 -2 -7 12 5 7 0 -0
-4 4 1 -4 -6 -1 2 2 16 2 5 19 78 9 5 1 7 15 -10 -8 -0 3 2 2 -0 -2 2 -2 1 -3 -3 4 -1 -2 12 12 9 -3 7 -4 -9 4 13 5 3 -2 1
-5 -3 -1 -5 1 -10 8 10 -8 26 -6 10 60 6 -1 2 11 8 -8 -6 2 3 1 4 -4 -2 -1 4 -2 2 -11 -2 -5 7 -12 -9 6 -4 -16 -2 4 4 -1 5 2 -3 -7
-2 -4 -3 -2 -1 -6 12 13 -1 10 -6 36 12 11 23 -1 -3 -10 -0 -4 1 1 5 3 -3 -4 9 2 -4 -0 -1 2 7 9 -1 -11 4 1 -7 9 3 -1 -2 -8 -12 14 -6
-4 4 -5 4 -10 7 0 3 19 18 46 53 4 9 17 26 0 -3 6 -3 -3 -0 4 2 4 -1 2 3 -2 -3 -2 -3 5 -2 9 5 0 -7 -6 6 10 4 -3 3 -1 8 -8
-4 4 -5 -7 0 -4 -9 5 6 8 6 1 8 -5 -9 -22 -2 -5 5 2 -2 0 5 -1 0 -4 -1 2 0 -5 -0 4 2 -11 7 2 -4 -1 -5 -10 8 3 -5 1 15 -3 -11
-0 6 -2 -3 -14 -11 6 11 -7 -2 8 1 -2 -4 -9 -2 -3 4 2 1 -4 5 4 -2 -2 3 -3 -11 -1 -0 5 3 6 4 3 -0 -8 3 -11 10 -2 -0 1 12 9 11 -13
-4 5 1 6 8 -2 -4 -16 14 33 20 4 6 -2 10 5 1 7 -5 -4 -1 11 -1 -2 -2 -2 9 -4 6 4 1 2 4 9 11 11 3 7 0 12 10 11 -12 -10 -9 -5 -6
-1 3 -1 1 -6 -2 -1 5 0 2 1 0 22 5 -4 -3 5 -3 -2 -0 -0 4 3 -1 -7 4 -3 -0 1 2 0 5 4 -6 4 2 4 9 0 5 -2 10 9 -11 1 -1 -5
1 1 3 4 -4 -2 2 -8 4 5 -12 11 -6 1 -3 -1 2 -0 4 0 -0 -1 2 -0 -12 -0 0 5 2 6 -4 0 4 -5 -0 2 7 -0 0 2 3 11 4 -9 -10 -4 13
1 -0 -3 -0 -1 -6 5 -6 2 2 2 -1 6 -3 -0 -0 -9 0 2 2 -3 -1 1 4 14 2 2 -7 12 -5 -4 1 -2 5 -8 2 -1 7 1 -1 0 3 5 8 8 -0 8
2 5 2 -5 -4 2 1 -11 -17 -10 9 4 3 16 2 -1 -6 -1 0 2 1 -1 -1 -2 -3 4 7 -2 9 -4 -4 0 -4 0 -1 -2 0 -2 2 -1 -1 3 6 2 -4 -8 -4
-1 -1 -1 4 -2 2 1 -2 8 19 9 7 15 1 -0 -1 -1 -2 1 -1 -2 -1 -0 -4 4 2 13 16 1 -2 2 -0 -2 0 -1 -6 -6 -5 2 -2 -7 1 3 2 4 1 -1
-2 -2 -6 1 1 -0 -1 1 3 1 -4 -3 23 1 -3 -1 -3 -3 -2 2 -2 -1 -2 -2 -1 -2 14 6 -2 -1 -2 -0 -3 -3 2 -3 -7 -11 -9 -1 -0 -0 -1 -1 1 2 0
Height
3074 3073 3072 3070 3069 3069 3069 3068 3067 3067 3068 3067 3067 3068 3068 3068 3069 3069 3069 3070 3070 3070 3070 3070 3070 3070 3073 3074 3073 3076 3076 3077 3077 3079 3081 3082 3083 3085 3084 3086 3089 3084 3087 3091 3094 3098 3100
3067 3064 3064 3063 3063 3062 3061 3061 3060 3060 3061 3061 3061 3062 3062 3063 3064 3064 3065 3065 3066 3066 3066 3065 3065 3067 3069 3068 3069 3067 3070 3072 3071 3073 3075 3077 3079 3081 3079 3079 3081 3080 3081 3083 3087 3090 3094
3060 3057 3055 3055 3056 3055 3053 3053 3053 3052 3053 3054 3055 3055 3056 3057 3058 3058 3059 3060 3061 3062 3061 3061 3060 3062 3064 3067 3063 3062 3064 3067 3065 3066 3069 3069 3072 3073 3074 3076 3077 3074 3075 3077 3079 3084 3086
3053 3049 3047 3045 3045 3046 3044 3045 3045 3045 3046 3046 3048 3049 3049 3051 3052 3053 3053 3054 3055 3056 3056 3055 3055 3058 3059 3059 3057 3055 3058 3062 3063 3063 3064 3065 3067 3068 3068 3071 3071 3071 3072 3070 3074 3080 3083
3045 3041 3038 3035 3034 3035 3036 3036 3037 3037 3038 3039 3040 3042 3043 3044 3045 3046 3048 3049 3050 3050 3051 3050 3051 3052 3055 3054 3054 3051 3052 3055 3058 3058 3059 3063 3063 3063 3065 3067 3070 3068 3064 3066 3069 3075 3079
3038 3034 3029 3025 3023 3022 3025 3026 3027 3029 3030 3031 3032 3034 3036 3038 3039 3040 3042 3044 3044 3045 3045 3045 3044 3049 3050 3049 3049 3049 3049 3050 3051 3053 3056 3058 3057 3057 3059 3063 3058 3064 3062 3061 3063 3071 3073
3028 3023 3019 3015 3012 3012 3012 3014 3016 3018 3021 3024 3025 3026 3028 3031 3033 3034 3037 3039 3042 3040 3038 3041 3038 3040 3041 3041 3043 3043 3043 3045 3046 3047 3048 3052 3053 3048 3053 3056 3058 3059 3057 3055 3061 3066 3067
3018 3011 3007 3003 2999 2999 2999 3002 3004 3008 3010 3014 3018 3019 3022 3024 3026 3028 3031 3032 3035 3033 3032 3033 3033 3033 3034 3033 3034 3038 3038 3040 3041 3040 3045 3048 3042 3047 3051 3053 3053 3054 3052 3050 3057 3064 3063
3008 3001 2995 2992 2989 2987 2987 2990 2991 2994 3000 3004 3009 3012 3015 3018 3019 3021 3025 3028 3028 3027 3027 3024 3027 3023 3029 3026 3025 3030 3033 3035 3036 3037 3039 3040 3040 3044 3045 3046 3047 3047 3047 3052 3055 3059 3054
2997 2991 2985 2980 2977 2975 2975 2976 2980 2985 2988 2992 2999 3004 3008 3011 3014 3017 3020 3023 3023 3024 3024 3018 3019 3017 3019 3020 3020 3024 3025 3031 3030 3031 3036 3035 3037 3040 3038 3039 3045 3040 3047 3049 3052 3056 3050
2987 2980 2973 2969 2968 2968 2966 2965 2967 2972 2974 2982 2989 2996 3000 3004 3008 3012 3018 3018 3019 3023 3025 3015 3013 3014 3014 3017 3017 3018 3020 3022 3022 3026 3031 3027 3029 3031 3031 3033 3038 3036 3044 3046 3048 3048 3050
2979 2973 2966 2962 2961 2959 2957 2957 2956 2959 2965 2970 2980 2987 2993 2996 3002 3007 3010 3013 3017 3023 3014 3008 3009 3010 3013 3013 3013 3015 3017 3019 3019 3021 3021 3023 3025 3026 3027 3031 3033 3039 3041 3043 3043 3045 3038
2975 2967 2960 2957 2955 2952 2951 2951 2949 2950 2956 2961 2966 2979 2986 2990 2999 3001 3004 3008 3015 3013 3006 3003 3004 3007 3009 3009 3009 3010 3011 3012 3014 3015 3013 3016 3016 3020 3023 3025 3028 3033 3039 3037 3037 3035 3023
2970 2962 2954 2950 2948 2946 2946 2942 2940 2941 2947 2950 2959 2965 2977 2986 2991 2995 2999 3005 3005 2998 2998 2998 3001 3004 3004 3004 3005 3005 3006 3006 3009 3009 3009 3009 3010 3010 3013 3015 3020 3023 3028 3027 3027 3025 3021
2966 2956 2948 2945 2944 2941 2939 2936 2934 2935 2939 2945 2949 2956 2968 2976 2984 2991 2995 2997 2993 2993 2995 2995 2998 2998 2998 2998 3001 3001 3001 3001 3000 3001 3007 3004 3004 3004 3006 3011 3016 3018 3020 3021 3023 3019 3018
2960 2952 2944 2941 2939 2936 2932 2929 2927 2932 2937 2942 2945 2942 2962 2969 2978 2985 2989 2987 2988 2989 2990 2992 2993 2993 2993 2994 2996 2998 2997 2991 2990 2993 2999 3000 3000 2999 3001 3004 3006 3010 3013 3020 3023 3022 3012
2957 2949 2942 2938 2936 2931 2928 2925 2924 2924 2926 2936 2940 2944 2954 2964 2973 2977 2978 2980 2983 2986 2987 2989 2987 2988 2989 2990 2992 2992 2991 2989 2987 2989 2993 2995 2997 2995 2997 2994 2999 3003 3007 3010 3013 3013 3007
2952 2945 2938 2935 2932 2929 2923 2921 2920 2922 2923 2928 2930 2936 2949 2958 2966 2969 2972 2974 2980 2981 2982 2983 2984 2984 2984 2986 2988 2990 2986 2986 2984 2986 2987 2990 2989 2987 2986 2989 2991 2996 2998 3001 3004 3006 3007
2948 2941 2934 2929 2927 2924 2920 2917 2912 2910 2918 2922 2927 2936 2949 2955 2957 2963 2969 2972 2975 2977 2978 2979 2979 2979 2980 2983 2986 2983 2982 2981 2981 2984 2983 2984 2982 2982 2980 2982 2982 2986 2991 2997 3000 3003 3002
2943 2937 2931 2925 2922 2919 2916 2910 2905 2905 2906 2915 2924 2935 2946 2951 2956 2961 2965 2968 2970 2971 2973 2974 2975 2974 2976 2978 2979 2980 2979 2980 2980 2979 2979 2979 2976 2974 2972 2974 2978 2978 2981 2987 2996 2996 2996
2939 2933 2928 2921 2917 2917 2912 2907 2905 2903 2906 2913 2920 2931 2936 2942 2951 2959 2962 2964 2965 2967 2969 2970 2971 2972 2972 2975 2975 2976 2977 2977 2976 2973 2972 2973 2971 2969 2967 2964 2968 2970 2974 2977 2984 2987 2989
2934 2929 2925 2919 2917 2915 2913 2909 2907 2906 2910 2916 2923 2928 2937 2942 2951 2955 2958 2959 2961 2963 2965 2966 2968 2969 2969 2970 2972 2973 2973 2974 2974 2971 2969 2968 2967 2964 2954 2949 2952 2960 2967 2973 2979 2983 2986
2930 2925 2920 2914 2912 2912 2910 2909 2907 2908 2915 2918 2924 2930 2939 2942 2947 2952 2953 2955 2959 2960 2961 2962 2964 2965 2964 2967 2970 2972 2970 2971 2970 2969 2967 2967 2965 2962 2953 2953 2957 2963 2962 2966 2970 2976 2984
2927 2923 2918 2912 2910 2909 2908 2907 2907 2911 2915 2918 2923 2931 2935 2940 2944 2947 2950 2952 2954 2955 2957 2958 2959 2961 2963 2965 2966 2966 2966 2967 2969 2967 2968 2967 2966 2964 2958 2956 2960 2960 2961 2964 2968 2976 2979
2922 2919 2916 2911 2908 2907 2905 2906 2908 2910 2916 2914 2920 2929 2934 2937 2942 2945 2948 2949 2949 2951 2952 2953 2954 2955 2959 2961 2963 2963 2964 2963 2964 2966 2966 2967 2970 2966 2963 2959 2962 2963 2965 2967 2970 2977 2980
2919 2916 2912 2908 2906 2904 2904 2905 2908 2910 2914 2918 2921 2927 2932 2936 2939 2942 2944 2945 2946 2946 2947 2947 2947 2947 2952 2958 2959 2961 2962 2961 2961 2963 2964 2966 2969 2970 2966 2966 2964 2965 2966 2969 2973 2975 2977
2917 2913 2910 2906 2903 2904 2903 2905 2907 2910 2911 2916 2919 2925 2930 2934 2937 2939 2941 2942 2943 2944 2943 2941 2939 2941 2948 2953 2954 2959 2960 2960 2959 2959 2961 2964 2966 2967 2969 2967 2965 2966 2967 2969 2974 2976 2974
2913 2909 2905 2902 2899 2899 2900 2902 2903 2906 2909 2912 2918 2923 2927 2930 2934 2935 2937 2939 2940 2940 2940 2939 2939 2939 2945 2947 2951 2954 2956 2957 2957 2957 2958 2961 2964 2965 2967 2968 2966 2965 2968 2970 2972 2970 2971
2910 2905 2902 2898 2895 2894 2895 2898 2901 2905 2910 2914 2919 2922 2926 2929 2931 2932 2934 2936 2937 2937 2937 2936 2937 2937 2941 2944 2948 2952 2953 2953 2954 2955 2956 2959 2959 2961 2963 2963 2963 2964 2967 2969 2971 2972 2974